Dewpoint
52 53 55 59 59 59 60 59 56 55 51 52 52 57 62 63 61 63 62 55 53 52 52 54 56 57 58 58 59 59 59 59 60 59 59 59 59 59
49 50 52 53 55 60 60 59 58 56 56 53 51 54 56 61 62 62 62 57 52 51 51 52 53 54 56 56 57 57 57 58 58 58 58 58 58 58
45 50 50 52 53 55 57 60 58 57 55 58 61 60 57 58 61 61 63 63 61 50 49 50 50 51 52 53 54 54 55 56 56 57 57 58 58 58
43 48 48 50 51 51 51 52 55 57 56 56 59 61 60 61 60 60 61 62 63 54 49 49 49 49 50 50 50 51 52 52 53 54 55 56 57 57
41 46 46 46 47 48 49 47 47 47 50 55 55 58 61 62 60 59 60 59 63 56 49 48 48 48 48 48 48 49 49 49 50 50 51 52 53 54
40 44 45 45 47 45 44 43 42 42 45 48 52 56 57 57 57 56 56 58 59 60 57 54 51 49 48 48 48 48 48 48 47 48 48 47 49 50
39 41 43 42 43 41 41 39 39 40 42 44 46 49 52 53 54 54 55 55 54 56 57 59 58 56 55 48 50 48 47 46 46 47 46 46 46 48
36 39 36 40 38 38 36 36 37 38 39 41 43 44 46 49 53 55 54 53 50 56 56 56 58 58 58 57 53 48 46 46 45 45 45 45 45 45
34 34 33 35 36 35 34 34 34 35 33 38 41 43 44 45 46 45 49 53 52 53 55 50 54 57 60 59 49 47 45 45 45 44 44 44 43 43
35 34 33 34 34 34 32 32 32 34 36 37 39 43 40 40 42 43 44 46 49 55 54 50 51 51 56 57 50 49 47 45 45 45 44 43 43 43
31 33 32 33 34 33 31 30 30 32 34 35 36 36 37 38 39 42 43 45 45 48 52 53 53 52 44 54 55 48 47 46 45 45 44 43 43 42
30 30 30 30 30 31 30 30 29 31 32 33 34 35 38 41 38 43 45 42 44 44 48 52 51 45 46 51 53 53 52 45 45 45 44 43 43 45
30 30 29 29 29 29 30 30 30 32 32 32 34 37 39 39 39 40 40 41 40 40 45 45 45 43 43 49 42 41 48 49 49 48 43 43 43 44
28 29 30 29 29 30 30 31 32 32 33 32 32 32 34 35 36 36 37 39 41 40 41 43 42 45 47 48 50 44 44 49 50 49 48 44 41 41
29 30 30 29 29 29 29 30 31 33 33 32 30 31 33 34 34 34 35 36 37 37 39 41 44 45 46 47 49 51 42 39 46 48 47 45 46 41
28 29 28 28 27 30 30 31 32 32 32 32 33 33 34 33 32 33 33 33 33 34 36 39 39 40 40 41 45 46 51 47 40 45 47 46 46 46
28 26 26 27 27 30 31 31 31 31 32 32 32 32 32 32 32 32 32 31 31 31 33 35 37 38 38 39 38 42 44 47 47 41 42 44 43 44
26 23 26 26 27 29 31 31 31 31 31 32 32 31 31 30 31 31 31 30 29 29 31 32 34 34 34 34 39 40 42 44 43 41 39 42 45 42
27 27 27 27 29 30 31 31 31 31 32 31 31 31 30 30 30 30 30 29 28 28 29 31 32 33 32 31 35 37 38 38 39 37 40 40 43 45
28 28 27 28 29 29 30 31 32 32 32 32 31 30 30 30 30 30 30 29 29 28 27 28 30 31 32 31 32 34 35 36 36 37 38 37 38 34
27 27 27 28 29 30 31 30 31 31 31 32 32 32 31 30 30 30 30 29 30 29 28 26 29 32 33 34 31 32 35 35 35 35 34 34 36 33
27 27 28 29 30 30 30 30 30 30 32 32 32 32 32 31 30 30 30 30 29 29 29 30 30 30 32 31 30 32 33 35 33 32 32 33 33 33
28 29 29 28 29 30 30 31 31 30 30 31 32 32 32 31 31 30 30 30 31 30 29 29 29 30 30 31 31 32 32 33 34 33 32 31 32 32
Lifted_Index
3 3 2 2 1 2 2 2 2 1 1 0 -0 -2 -3 -4 -5 -4 -4 -4 -5 -4 -4 -4 -4 -3 -3 -3 -3 -2 -1 -1 -0 -1 -1 -1 -0 0
6 5 4 3 2 2 2 2 2 2 2 1 -0 -2 -2 -3 -4 -4 -4 -4 -4 -5 -4 -4 -4 -3 -3 -3 -3 -2 -2 -1 -1 -1 -1 -1 -0 -0
9 8 6 5 4 3 3 2 2 2 2 1 -0 -1 -2 -2 -3 -3 -4 -4 -4 -5 -5 -5 -4 -3 -3 -3 -2 -2 -2 -2 -1 -1 -1 -1 -1 -1
11 10 9 8 7 5 4 3 2 2 2 2 1 0 -1 -1 -2 -2 -2 -3 -3 -4 -4 -4 -4 -4 -3 -2 -2 -2 -2 -2 -1 -1 -1 -1 -1 -1
11 11 10 10 9 8 6 5 4 3 3 3 3 2 1 0 -0 -0 -1 -1 -1 -2 -2 -3 -3 -3 -3 -2 -2 -2 -2 -2 -1 -1 -1 -1 -1 -1
11 10 10 10 10 9 8 7 6 6 5 4 4 3 3 2 2 2 1 1 1 1 0 -0 -1 -1 -1 -1 -1 -1 -2 -2 -1 -1 -1 -1 -1 -0
10 10 10 11 10 10 10 9 9 8 7 6 5 4 4 3 3 3 3 3 3 3 3 3 2 2 1 0 -1 -1 -2 -2 -1 -1 -1 -1 -1 -1
10 10 11 11 11 11 11 11 10 10 10 8 7 6 5 4 4 3 3 3 3 3 3 4 3 3 2 1 0 -1 -1 -1 -1 -0 0 0 0 0
11 11 11 12 12 11 11 11 11 11 11 11 10 9 8 7 6 4 3 3 3 3 3 3 3 3 3 2 1 0 0 0 0 1 1 1 1 1
12 12 12 12 12 12 12 11 11 11 12 13 13 12 11 11 9 8 6 4 4 3 3 3 3 3 3 3 2 1 1 1 1 2 2 2 2 2
12 12 12 12 12 12 12 12 11 11 12 13 13 14 13 13 12 10 8 6 5 4 4 3 3 3 3 3 2 2 2 2 2 2 2 2 2 2
11 11 12 12 12 12 12 12 12 12 12 12 12 13 13 13 12 11 9 8 7 7 6 5 4 4 3 3 2 2 2 2 2 2 2 2 2 2
11 11 12 12 12 12 12 12 12 12 12 11 11 11 12 12 12 11 9 8 8 8 8 7 6 5 4 4 3 3 3 3 3 2 3 2 2 2
11 11 12 12 12 11 11 11 11 11 11 11 11 11 11 11 11 11 10 9 9 9 9 8 7 7 6 6 5 4 3 3 3 3 2 2 2 2
11 11 12 12 12 12 11 11 11 11 11 10 10 11 11 11 11 11 10 10 9 9 9 8 8 8 8 8 7 6 5 4 3 3 2 1 1 2
10 11 11 12 12 12 11 11 11 11 10 10 10 10 10 11 11 11 11 10 10 9 9 8 8 8 8 8 9 8 6 5 4 3 2 2 2 2
10 10 10 11 11 12 12 11 11 11 11 11 10 10 10 10 10 11 11 10 10 10 9 9 8 8 8 8 8 8 8 7 6 5 4 3 3 3
9 10 10 10 11 11 11 11 11 11 11 11 11 10 10 10 10 10 10 10 10 10 10 10 9 8 7 7 8 8 8 8 7 6 6 5 5 5
9 9 10 10 10 10 10 11 10 11 11 11 11 11 10 10 9 9 9 9 10 10 10 11 10 9 8 7 7 8 8 9 9 8 7 6 7 7
9 9 9 9 9 9 10 10 10 10 11 11 11 11 11 10 10 10 9 9 9 10 10 10 11 11 10 9 8 8 8 9 9 9 8 8 8 8
9 9 9 9 9 9 9 10 10 10 11 11 11 11 11 11 10 10 10 9 9 9 10 10 11 12 12 11 10 9 8 9 9 10 9 9 9 8
9 9 9 9 9 9 9 10 10 11 11 11 11 11 11 11 11 11 10 10 10 10 10 10 11 11 11 11 10 9 9 8 9 9 10 10 9 9
9 9 9 9 9 9 9 10 11 11 11 11 11 11 11 11 11 11 11 11 10 10 10 10 10 11 10 10 10 10 9 8 8 8 9 10 10 10